Weather History for KECG - December, 2013

Change the Weather History Date:

Monday, December 23, 2013

  Actual Average Record
Temperature  
Mean Temperature 61 °F 43 °F  
Max Temperature 76 °F 52 °F 76 °F (2013)
Min Temperature 46 °F 33 °F 16 °F (1989)
Degree Days  
Heating Degree Days 4 22  
Month to date heating degree days 374 454  
Since 1 July heating degree days 937 969  
Cooling Degree Days 0 0  
Month to date cooling degree days 14 0  
Year to date cooling degree days 1679 1588  
Growing Degree Days 10 (Base 50)    
Moisture  
Dew Point 61 °F    
Average Humidity 84    
Maximum Humidity 93    
Minimum Humidity 74    
Precipitation  
Precipitation 1.50 in 0.09 in 1.50 in (2013)
Month to date precipitation 4.42 1.96  
Year to date precipitation 44.01 45.98  
Snow  
Snow 0.00 in - 9.00 in (1935)
Month to date snowfall 0.0  
Since 1 July snowfall T  
Snow Depth 0.00 in    
Sea Level Pressure  
Sea Level Pressure 30.07 in    
Wind  
Wind Speed 14 mph (SSW)    
Max Wind Speed 28 mph    
Max Gust Speed 33 mph    
Visibility 8 miles    
Events Rain    
T = Trace of Precipitation, MM = Missing Value Source: NWS Daily Summary

Daily Weather History Graph

Daily Weather History Graph

Search for Another Location

Airport or City:

Trip Planner

Search our weather history database for the weather conditions in past years. The results will help you decide how hot, cold, wet, or windy it might be!

Date:

Astronomy

Dec. 23, 2013 Rise Set
Actual Time 7:13 AM EST 4:54 PM EST
Civil Twilight 6:44 AM EST 5:23 PM EST
Nautical Twilight 6:12 AM EST 5:55 PM EST
Astronomical Twilight 5:40 AM EST 6:27 PM EST
Moon 10:52 PM EST (12/23) 10:46 AM EST (12/23)
Length of Visible Light 10h 38m
Length of Day
9h 41m
Waning Gibbous, 68% of the Moon is Illuminated
Dec 23
Waning Gibbous
Dec 25
Last Quarter
Jan 1
New
Jan 7
First Quarter
Jan 15
Full

Hourly Weather History & Observations

Time (EST) Temp. Windchill Dew Point Humidity Pressure Visibility Wind Dir Wind Speed Gust Speed Precip Events Conditions
12:13 AM 66.9 °F - 64.9 °F 93% 30.11 in 10.0 mi SSW 10.4 mph - N/A   Mostly Cloudy
12:45 AM 68.0 °F - 66.0 °F 93% 30.10 in 10.0 mi SSW 11.5 mph - N/A   Overcast
12:54 AM 68.0 °F - 66.0 °F 93% 30.10 in 10.0 mi SSW 11.5 mph - N/A   Overcast
1:25 AM 66.9 °F - 64.9 °F 93% 30.10 in 10.0 mi SSW 10.4 mph - N/A   Mostly Cloudy
1:32 AM 66.9 °F - 66.0 °F 97% 30.10 in 10.0 mi South 9.2 mph - N/A   Scattered Clouds
1:54 AM 66.9 °F - 64.9 °F 93% 30.10 in 10.0 mi SSW 11.5 mph - N/A   Scattered Clouds
2:28 AM 69.1 °F - 66.9 °F 93% 30.10 in 10.0 mi SSW 13.8 mph - N/A   Mostly Cloudy
2:51 AM 69.8 °F - 66.2 °F 88% 30.10 in 10.0 mi SSW 15.0 mph - N/A   Mostly Cloudy
2:54 AM 69.1 °F - 66.9 °F 93% 30.09 in 10.0 mi SSW 16.1 mph - N/A   Mostly Cloudy
3:18 AM 69.1 °F - 66.9 °F 93% 30.09 in 10.0 mi SSW 12.7 mph - N/A   Mostly Cloudy
3:54 AM 70.0 °F - 66.9 °F 90% 30.08 in 10.0 mi South 15.0 mph - N/A   Mostly Cloudy
4:54 AM 70.0 °F - 66.0 °F 87% 30.08 in 10.0 mi SSW 15.0 mph - N/A   Overcast
5:54 AM 69.1 °F - 66.9 °F 93% 30.07 in 10.0 mi South 16.1 mph 23.0 mph N/A   Overcast
6:13 AM 69.1 °F - 66.9 °F 93% 30.06 in 10.0 mi South 15.0 mph - N/A   Scattered Clouds
6:36 AM 69.1 °F - 66.9 °F 93% 30.07 in 10.0 mi South 15.0 mph 26.5 mph N/A   Mostly Cloudy
6:54 AM 69.1 °F - 66.9 °F 93% 30.08 in 10.0 mi SSW 16.1 mph 23.0 mph N/A   Mostly Cloudy
7:45 AM 70.0 °F - 66.0 °F 87% 30.09 in 10.0 mi South 13.8 mph - N/A   Mostly Cloudy
7:54 AM 69.1 °F - 66.0 °F 90% 30.09 in 10.0 mi South 15.0 mph - N/A   Partly Cloudy
8:54 AM 71.1 °F - 66.9 °F 87% 30.09 in 10.0 mi South 16.1 mph 25.3 mph N/A   Overcast
9:44 AM 71.1 °F - 66.9 °F 87% 30.10 in 10.0 mi SSW 15.0 mph 24.2 mph 0.00 in Rain Light Rain
9:54 AM 72.0 °F - 66.9 °F 84% 30.10 in 10.0 mi SSW 17.3 mph 23.0 mph 0.00 in Rain Light Rain
10:12 AM 73.0 °F - 66.9 °F 81% 30.10 in 10.0 mi South 17.3 mph 26.5 mph 0.00 in Rain Light Rain
10:54 AM 73.9 °F - 66.9 °F 79% 30.09 in 10.0 mi SSW 19.6 mph 24.2 mph 0.00 in Rain Light Rain
11:54 AM 75.0 °F - 66.9 °F 76% 30.05 in 10.0 mi South 12.7 mph - 0.00 in Rain Light Rain
12:54 PM 73.9 °F - 66.9 °F 79% 30.03 in 10.0 mi SSW 17.3 mph - 0.00 in Rain Light Rain
1:01 PM 73.9 °F - 66.9 °F 79% 30.02 in 10.0 mi SSW 16.1 mph - 0.00 in   Scattered Clouds
1:40 PM 73.9 °F - 66.9 °F 79% 30.02 in 10.0 mi SSW 15.0 mph - 0.00 in Rain Light Rain
1:49 PM 73.4 °F - 66.2 °F 78% 30.02 in 10.0 mi SSW 13.8 mph - 0.00 in Rain Light Rain
1:54 PM 73.9 °F - 66.9 °F 79% 30.02 in 9.0 mi SSW 12.7 mph - 0.00 in Rain Light Rain
2:31 PM 69.1 °F - 64.0 °F 84% 30.03 in 7.0 mi WSW 13.8 mph 24.2 mph 0.03 in Rain Light Rain
2:54 PM 70.0 °F - 64.0 °F 81% 30.01 in 10.0 mi SW 9.2 mph - 0.04 in Rain Light Rain
3:26 PM 68.0 °F - 64.0 °F 87% 30.03 in 1.8 mi SSW 12.7 mph - 0.10 in Rain Heavy Rain
3:37 PM 66.9 °F - 64.9 °F 93% 30.02 in 3.0 mi South 6.9 mph - 0.13 in Rain Light Rain
3:54 PM 66.9 °F - 64.9 °F 93% 30.02 in 10.0 mi South 5.8 mph - 0.13 in   Overcast
4:50 PM 66.2 °F - 64.4 °F 94% 30.03 in 1.5 mi Variable 3.5 mph - 0.22 in Rain Heavy Rain
4:54 PM 66.0 °F - 64.0 °F 93% 30.03 in 1.2 mi WSW 6.9 mph - 0.24 in Rain Heavy Rain
5:05 PM 66.0 °F - 64.9 °F 96% 30.04 in 2.0 mi SW 8.1 mph - 0.09 in Rain Heavy Rain
5:14 PM 66.0 °F - 64.9 °F 96% 30.03 in 1.8 mi Calm Calm - 0.20 in Rain Heavy Rain
5:24 PM 66.0 °F - 64.9 °F 96% 30.02 in 3.0 mi SW 3.5 mph - 0.23 in Rain Rain
5:54 PM 66.0 °F - 64.0 °F 93% 30.02 in 10.0 mi SSE 4.6 mph - 0.29 in Rain Light Rain
6:48 PM 64.4 °F - 64.4 °F 100% 30.02 in 2.0 mi Calm Calm - 0.07 in Rain Heavy Rain
6:54 PM 64.9 °F - 64.9 °F 100% 30.03 in 2.0 mi Calm Calm - 0.07 in Rain Light Rain
7:03 PM 64.9 °F - 64.0 °F 97% 30.04 in 1.2 mi West 3.5 mph - 0.09 in Rain Heavy Rain
7:23 PM 64.9 °F - 64.9 °F 100% 30.05 in 2.0 mi Calm Calm - 0.23 in Rain Rain
7:52 PM 55.4 °F - 53.6 °F 94% 30.06 in 3.0 mi North 20.7 mph 29.9 mph 0.40 in Rain Heavy Rain
7:54 PM 55.0 °F - 54.0 °F 96% 30.07 in 3.0 mi North 18.4 mph 29.9 mph 0.41 in Rain Heavy Rain
8:29 PM 55.0 °F - 53.1 °F 93% 30.07 in 6.0 mi North 16.1 mph 24.2 mph 0.11 in Rain Rain
8:54 PM 53.1 °F - 50.0 °F 89% 30.06 in 6.0 mi North 17.3 mph 32.2 mph 0.16 in Rain Light Rain
9:03 PM 52.0 °F - 50.0 °F 93% 30.08 in 6.0 mi North 24.2 mph 32.2 mph 0.02 in Rain Rain
9:54 PM 48.9 °F - 46.9 °F 93% 30.11 in 9.0 mi North 19.6 mph - 0.09 in Rain Light Rain
10:09 PM 48.9 °F - 46.0 °F 90% 30.12 in 7.0 mi North 18.4 mph 31.1 mph 0.01 in Rain Light Rain
10:11 PM 48.9 °F - 46.0 °F 90% 30.13 in 6.0 mi North 17.3 mph 31.1 mph 0.01 in Rain Rain
10:37 PM 48.0 °F - 45.0 °F 89% 30.13 in 6.0 mi North 17.3 mph - 0.06 in Rain Light Rain
10:49 PM 46.4 °F 39.0 °F 44.6 °F 93% 30.12 in 10.0 mi North 19.6 mph - 0.06 in Rain Light Rain
10:54 PM 46.9 °F - 45.0 °F 93% 30.12 in 10.0 mi North 18.4 mph 27.6 mph 0.07 in Rain Light Rain
11:23 PM 46.9 °F - 45.0 °F 93% 30.12 in 9.0 mi North 20.7 mph - 0.00 in Rain Light Rain
11:41 PM 46.9 °F - 44.1 °F 90% 30.12 in 10.0 mi North 23.0 mph 27.6 mph 0.00 in Rain Light Rain
11:54 PM 46.0 °F 38.3 °F 44.1 °F 93% 30.12 in 7.0 mi North 20.7 mph 31.1 mph 0.00 in Rain Light Rain